When you browse on this site, cookies collect data to enhance your experience and personalize the content and advertising you see.
Visit our Privacy Policy to learn more. By continuing to use the site, you agree to this use of cookies and data.
EN

Hourly Weather Aleksandrovskiy

Today, 3 July, Friday

Time Temperature Precipitation Wind Pressure Humidity
00:00 +16°C° 0 mm 2 mps 750 mmHg 91%
01:00 +15°C° 0 mm 2 mps 750 mmHg 92%
02:00 +15°C° 0 mm 2 mps 751 mmHg 93%
03:00 +15°C° 0 mm 2 mps 751 mmHg 94%
04:00 +16°C° 0 mm 2 mps 751 mmHg 92%
05:00 +17°C° 0 mm 2 mps 751 mmHg 91%
06:00 +18°C° 0 mm 2 mps 751 mmHg 89%
07:00 +19°C° 0 mm 2 mps 752 mmHg 83%
08:00 +21°C° 0 mm 2 mps 752 mmHg 76%
09:00 +23°C° 0 mm 2 mps 753 mmHg 70%
10:00 +24°C° 0.1 mm 3 mps 752 mmHg 68%
11:00 +25°C° 0.1 mm 3 mps 752 mmHg 65%
12:00 +26°C° 0.1 mm 3 mps 752 mmHg 62%
13:00 +26°C° 0.6 mm 3 mps 752 mmHg 66%
14:00 +25°C° 0.6 mm 3 mps 752 mmHg 69%
15:00 +25°C° 0.6 mm 4 mps 752 mmHg 73%
16:00 +25°C° 1 mm 3 mps 752 mmHg 76%
17:00 +25°C° 1 mm 3 mps 752 mmHg 80%
18:00 +24°C° 1 mm 2 mps 752 mmHg 83%
19:00 +23°C° 0.3 mm 2 mps 752 mmHg 86%
20:00 +21°C° 0.3 mm 2 mps 752 mmHg 88%
21:00 +20°C° 0.3 mm 2 mps 752 mmHg 91%
22:00 +19°C° 0.1 mm 2 mps 752 mmHg 92%
23:00 +19°C° 0.1 mm 2 mps 752 mmHg 93%

Tomorrow, 4 July, Saturday

Time Temperature Precipitation Wind Pressure Humidity
00:00 +18°C° 0.1 mm 2 mps 752 mmHg 94%
01:00 +18°C° 0 mm 2 mps 752 mmHg 94%
02:00 +18°C° 0 mm 2 mps 752 mmHg 95%
03:00 +18°C° 0 mm 2 mps 752 mmHg 96%
04:00 +19°C° 0 mm 2 mps 752 mmHg 95%
05:00 +21°C° 0 mm 1 mps 752 mmHg 94%
06:00 +22°C° 0 mm 1 mps 752 mmHg 93%
07:00 +21°C° 0.1 mm 2 mps 752 mmHg 92%
08:00 +23°C° 0.1 mm 2 mps 752 mmHg 91%
09:00 +23°C° 0.1 mm 2 mps 752 mmHg 91%
10:00 +24°C° 0.3 mm 2 mps 752 mmHg 86%
11:00 +25°C° 0.3 mm 2 mps 752 mmHg 81%
12:00 +26°C° 0.3 mm 2 mps 752 mmHg 76%
13:00 +26°C° 0 mm 2 mps 752 mmHg 73%
14:00 +27°C° 0 mm 2 mps 752 mmHg 70%
15:00 +28°C° 0 mm 3 mps 751 mmHg 67%
16:00 +27°C° 0.4 mm 3 mps 751 mmHg 72%
17:00 +27°C° 0.4 mm 2 mps 751 mmHg 76%
18:00 +26°C° 0.4 mm 2 mps 750 mmHg 81%
19:00 +25°C° 0.9 mm 2 mps 750 mmHg 84%
20:00 +24°C° 0.9 mm 3 mps 750 mmHg 88%
21:00 +22°C° 0.9 mm 3 mps 750 mmHg 91%
22:00 +21°C° 0.1 mm 3 mps 750 mmHg 92%
23:00 +20°C° 0.1 mm 3 mps 750 mmHg 93%

Day after tomorrow, 5 July, Sunday

Time Temperature Precipitation Wind Pressure Humidity
00:00 +20°C° 0.1 mm 3 mps 750 mmHg 94%
01:00 +20°C° 0 mm 2 mps 750 mmHg 94%
02:00 +19°C° 0 mm 2 mps 750 mmHg 94%
03:00 +19°C° 0 mm 2 mps 749 mmHg 94%
04:00 +20°C° 0 mm 2 mps 749 mmHg 93%
05:00 +21°C° 0 mm 2 mps 749 mmHg 92%
06:00 +23°C° 0 mm 2 mps 749 mmHg 91%
07:00 +24°C° 0.3 mm 2 mps 749 mmHg 86%
08:00 +25°C° 0.3 mm 2 mps 749 mmHg 81%
09:00 +27°C° 0.3 mm 2 mps 749 mmHg 76%
10:00 +27°C° 0.1 mm 2 mps 749 mmHg 71%
11:00 +28°C° 0.1 mm 2 mps 749 mmHg 66%
12:00 +29°C° 0.1 mm 3 mps 749 mmHg 61%
13:00 +28°C° 0.4 mm 3 mps 749 mmHg 66%
14:00 +28°C° 0.4 mm 3 mps 748 mmHg 71%
15:00 +27°C° 0.4 mm 3 mps 748 mmHg 76%
16:00 +26°C° 0.4 mm 3 mps 748 mmHg 79%
17:00 +25°C° 0.4 mm 2 mps 748 mmHg 82%
18:00 +24°C° 0.4 mm 1 mps 748 mmHg 85%
19:00 +23°C° 0 mm 1 mps 748 mmHg 86%
20:00 +22°C° 0 mm 1 mps 748 mmHg 87%
21:00 +21°C° 0 mm 1 mps 748 mmHg 88%
22:00 +20°C° 0 mm 2 mps 748 mmHg 90%
23:00 +19°C° 0 mm 2 mps 748 mmHg 91%

6 July, Monday

Time Temperature Precipitation Wind Pressure Humidity
00:00 +19°C° 0 mm 2 mps 748 mmHg 93%
01:00 +20°C° 0 mm 1 mps 748 mmHg 93%
02:00 +19°C° 0 mm 1 mps 748 mmHg 93%
03:00 +19°C° 0 mm 1 mps 748 mmHg 94%
04:00 +20°C° 0 mm 1 mps 748 mmHg 93%
05:00 +21°C° 0 mm 1 mps 748 mmHg 92%
06:00 +21°C° 0 mm 1 mps 748 mmHg 91%
07:00 +21°C° 0 mm 2 mps 748 mmHg 89%
08:00 +21°C° 0 mm 2 mps 748 mmHg 87%
09:00 +23°C° 0 mm 2 mps 748 mmHg 86%
10:00 +25°C° 0 mm 2 mps 748 mmHg 78%
11:00 +26°C° 0 mm 2 mps 748 mmHg 70%
12:00 +28°C° 0 mm 2 mps 748 mmHg 62%
13:00 +28°C° 0 mm 3 mps 749 mmHg 62%
14:00 +28°C° 0 mm 3 mps 749 mmHg 61%
15:00 +29°C° 0 mm 3 mps 749 mmHg 60%
16:00 +28°C° 0 mm 2 mps 749 mmHg 64%
17:00 +28°C° 0 mm 2 mps 749 mmHg 68%
18:00 +28°C° 0 mm 1 mps 749 mmHg 72%
19:00 +26°C° 0 mm 1 mps 749 mmHg 76%
20:00 +24°C° 0 mm 1 mps 749 mmHg 79%
21:00 +22°C° 0 mm 1 mps 750 mmHg 83%
22:00 +22°C° 0 mm 1 mps 750 mmHg 85%
23:00 +21°C° 0 mm 1 mps 750 mmHg 86%

7 July, Tuesday

Time Temperature Precipitation Wind Pressure Humidity
00:00 +21°C° 0 mm 1 mps 750 mmHg 88%
01:00 +21°C° 0 mm 1 mps 750 mmHg 89%
02:00 +20°C° 0 mm 1 mps 750 mmHg 90%
03:00 +20°C° 0 mm 1 mps 750 mmHg 90%
04:00 +21°C° 0 mm 1 mps 751 mmHg 88%
05:00 +23°C° 0 mm 1 mps 751 mmHg 86%
06:00 +24°C° 0 mm 1 mps 751 mmHg 84%
07:00 +25°C° 0 mm 2 mps 751 mmHg 79%
08:00 +27°C° 0 mm 2 mps 751 mmHg 74%
09:00 +28°C° 0 mm 2 mps 751 mmHg 69%
10:00 +29°C° 0 mm 2 mps 751 mmHg 66%
11:00 +30°C° 0 mm 3 mps 751 mmHg 63%
12:00 +30°C° 0 mm 3 mps 751 mmHg 60%
13:00 +30°C° 0.1 mm 3 mps 750 mmHg 60%
14:00 +31°C° 0.1 mm 3 mps 750 mmHg 61%
15:00 +31°C° 0.1 mm 3 mps 750 mmHg 61%
16:00 +30°C° 0.1 mm 3 mps 750 mmHg 65%
17:00 +30°C° 0.1 mm 3 mps 750 mmHg 69%
18:00 +29°C° 0.1 mm 3 mps 750 mmHg 73%
19:00 +28°C° 0 mm 3 mps 750 mmHg 78%
20:00 +26°C° 0 mm 3 mps 750 mmHg 83%
21:00 +24°C° 0 mm 3 mps 750 mmHg 88%
22:00 +24°C° 0 mm 3 mps 750 mmHg 89%
23:00 +22°C° 0 mm 3 mps 750 mmHg 90%

8 July, Wednesday

Time Temperature Precipitation Wind Pressure Humidity
00:00 +23°C° 0 mm 2 mps 750 mmHg 91%
01:00 +21°C° 0 mm 2 mps 751 mmHg 91%
02:00 +21°C° 0 mm 2 mps 751 mmHg 91%
03:00 +21°C° 0 mm 2 mps 751 mmHg 92%
04:00 +22°C° 0 mm 3 mps 751 mmHg 89%
05:00 +24°C° 0 mm 3 mps 751 mmHg 85%
06:00 +25°C° 0 mm 3 mps 751 mmHg 82%
07:00 +26°C° 0 mm 3 mps 751 mmHg 79%
08:00 +28°C° 0 mm 4 mps 751 mmHg 75%
09:00 +29°C° 0 mm 4 mps 751 mmHg 72%
10:00 +30°C° 0 mm 4 mps 751 mmHg 68%
11:00 +32°C° 0 mm 4 mps 751 mmHg 64%
12:00 +34°C° 0 mm 4 mps 751 mmHg 60%
13:00 +34°C° 0 mm 4 mps 751 mmHg 60%
14:00 +34°C° 0 mm 4 mps 751 mmHg 59%
15:00 +34°C° 0 mm 4 mps 751 mmHg 59%
16:00 +33°C° 0 mm 4 mps 750 mmHg 64%
17:00 +33°C° 0 mm 3 mps 750 mmHg 69%
18:00 +31°C° 0 mm 3 mps 750 mmHg 74%
19:00 +29°C° 0 mm 3 mps 750 mmHg 79%
20:00 +27°C° 0 mm 3 mps 750 mmHg 84%
21:00 +26°C° 0 mm 3 mps 750 mmHg 89%
22:00 +25°C° 0 mm 3 mps 750 mmHg 90%
23:00 +24°C° 0 mm 3 mps 750 mmHg 91%
Show more